Time,TemperatureF,DewpointF,PressureIn,WindDirection,WindDirectionDegrees,WindSpeedMPH,WindSpeedGustMPH,Humidity,HourlyPrecipIn,Conditions,Clouds,dailyrainin,SoftwareType,DateUTC
2013-11-01 00:08:00,42.5,40.6,29.50,North,-999,3.2,-999.0,93,-99.99,,,-99.99,Acu-Link.com,2013-11-01 05:08:00,
2013-11-01 00:24:00,42.4,40.5,29.50,North,-999,0.0,-999.0,93,-99.99,,,-99.99,Acu-Link.com,2013-11-01 05:24:00,
2013-11-01 00:39:00,41.9,40.3,29.50,North,-999,0.0,-999.0,94,-99.99,,,-99.99,Acu-Link.com,2013-11-01 05:39:00,
2013-11-01 00:54:00,41.4,40.1,29.50,North,-999,0.0,-999.0,95,-99.99,,,-99.99,Acu-Link.com,2013-11-01 05:54:00,
2013-11-01 01:09:00,40.6,39.8,29.50,North,-999,0.0,-999.0,97,-99.99,,,-99.99,Acu-Link.com,2013-11-01 06:09:00,
2013-11-01 01:24:00,41.0,40.2,29.51,North,-999,1.6,-999.0,97,-99.99,,,-99.99,Acu-Link.com,2013-11-01 06:24:00,
2013-11-01 01:39:00,40.8,40.0,29.51,North,-999,0.0,-999.0,97,-99.99,,,-99.99,Acu-Link.com,2013-11-01 06:39:00,
2013-11-01 01:55:00,40.3,39.5,29.52,North,-999,0.0,-999.0,97,-99.99,,,-99.99,Acu-Link.com,2013-11-01 06:55:00,
2013-11-01 02:10:00,40.0,39.5,29.51,North,-999,0.0,-999.0,98,-99.99,,,-99.99,Acu-Link.com,2013-11-01 07:10:00,
2013-11-01 02:25:00,40.2,39.4,29.51,North,-999,0.0,-999.0,97,-99.99,,,-99.99,Acu-Link.com,2013-11-01 07:25:00,
2013-11-01 02:41:00,39.3,38.8,29.52,North,-999,0.0,-999.0,98,-99.99,,,-99.99,Acu-Link.com,2013-11-01 07:41:00,
2013-11-01 02:56:00,38.9,38.6,29.53,North,-999,0.0,-999.0,99,-99.99,,,-99.99,Acu-Link.com,2013-11-01 07:56:00,
2013-11-01 03:12:00,38.8,38.5,29.53,North,-999,1.6,-999.0,99,-99.99,,,-99.99,Acu-Link.com,2013-11-01 08:12:00,
2013-11-01 03:27:00,38.9,38.6,29.52,North,-999,0.0,-999.0,99,-99.99,,,-99.99,Acu-Link.com,2013-11-01 08:27:00,
2013-11-01 03:42:00,39.4,38.9,29.54,North,-999,0.0,-999.0,98,-99.99,,,-99.99,Acu-Link.com,2013-11-01 08:42:00,
2013-11-01 03:57:00,39.1,38.8,29.54,North,-999,0.0,-999.0,99,-99.99,,,-99.99,Acu-Link.com,2013-11-01 08:57:00,
2013-11-01 04:12:00,39.0,38.7,29.54,North,-999,0.0,-999.0,99,-99.99,,,-99.99,Acu-Link.com,2013-11-01 09:12:00,
2013-11-01 04:27:00,39.1,38.6,29.55,North,-999,0.0,-999.0,98,-99.99,,,-99.99,Acu-Link.com,2013-11-01 09:27:00,
2013-11-01 04:42:00,39.5,38.7,29.55,North,-999,1.6,-999.0,97,-99.99,,,-99.99,Acu-Link.com,2013-11-01 09:42:00,
2013-11-01 04:58:00,38.5,38.0,29.55,North,-999,0.0,-999.0,98,-99.99,,,-99.99,Acu-Link.com,2013-11-01 09:58:00,
2013-11-01 05:13:00,38.5,38.2,29.56,North,-999,0.0,-999.0,99,-99.99,,,-99.99,Acu-Link.com,2013-11-01 10:13:00,
2013-11-01 05:28:00,38.0,37.7,29.58,North,-999,0.0,-999.0,99,-99.99,,,-99.99,Acu-Link.com,2013-11-01 10:28:00,
2013-11-01 05:43:00,37.9,37.6,29.58,North,-999,1.6,-999.0,99,-99.99,,,-99.99,Acu-Link.com,2013-11-01 10:43:00,
2013-11-01 05:58:00,37.9,37.6,29.58,North,-999,0.0,-999.0,99,-99.99,,,-99.99,Acu-Link.com,2013-11-01 10:58:00,
2013-11-01 06:13:00,37.6,37.3,29.59,North,-999,0.0,-999.0,99,-99.99,,,-99.99,Acu-Link.com,2013-11-01 11:13:00,
2013-11-01 06:29:00,38.1,37.8,29.59,North,-999,3.2,-999.0,99,-99.99,,,-99.99,Acu-Link.com,2013-11-01 11:29:00,
2013-11-01 06:44:00,37.9,37.6,29.60,North,-999,0.0,-999.0,99,-99.99,,,-99.99,Acu-Link.com,2013-11-01 11:44:00,
2013-11-01 06:59:00,38.2,37.9,29.61,North,-999,0.0,-999.0,99,-99.99,,,-99.99,Acu-Link.com,2013-11-01 11:59:00,
2013-11-01 07:15:00,38.8,38.5,29.62,North,-999,3.2,-999.0,99,-99.99,,,-99.99,Acu-Link.com,2013-11-01 12:15:00,
2013-11-01 07:30:00,39.5,39.0,29.62,North,-999,0.0,-999.0,98,-99.99,,,-99.99,Acu-Link.com,2013-11-01 12:30:00,
2013-11-01 07:45:00,40.1,39.6,29.62,North,-999,0.0,-999.0,98,-99.99,,,-99.99,Acu-Link.com,2013-11-01 12:45:00,
2013-11-01 08:00:00,40.6,39.8,29.62,North,-999,0.0,-999.0,97,-99.99,,,-99.99,Acu-Link.com,2013-11-01 13:00:00,
2013-11-01 08:16:00,41.6,40.5,29.62,North,-999,3.2,-999.0,96,-99.99,,,-99.99,Acu-Link.com,2013-11-01 13:16:00,
2013-11-01 08:31:00,42.1,40.8,29.63,North,-999,1.6,-999.0,95,-99.99,,,-99.99,Acu-Link.com,2013-11-01 13:31:00,
2013-11-01 08:46:00,42.4,41.1,29.64,North,-999,0.0,-999.0,95,-99.99,,,-99.99,Acu-Link.com,2013-11-01 13:46:00,
2013-11-01 09:02:00,43.7,41.8,29.65,North,-999,0.0,-999.0,93,-99.99,,,-99.99,Acu-Link.com,2013-11-01 14:02:00,
2013-11-01 09:17:00,45.1,42.6,29.66,North,-999,1.6,-999.0,91,-99.99,,,-99.99,Acu-Link.com,2013-11-01 14:17:00,
2013-11-01 09:32:00,46.6,43.8,29.66,North,-999,6.4,-999.0,90,-99.99,,,-99.99,Acu-Link.com,2013-11-01 14:32:00,
2013-11-01 09:48:00,47.5,44.7,29.67,North,-999,1.6,-999.0,90,-99.99,,,-99.99,Acu-Link.com,2013-11-01 14:48:00,
2013-11-01 10:03:00,47.8,45.3,29.68,North,-999,3.2,-999.0,91,-99.99,,,-99.99,Acu-Link.com,2013-11-01 15:03:00,
2013-11-01 10:18:00,48.0,45.2,29.68,North,-999,1.6,-999.0,90,-99.99,,,-99.99,Acu-Link.com,2013-11-01 15:18:00,
2013-11-01 10:34:00,52.8,47.1,29.68,North,-999,1.6,-999.0,81,-99.99,,,-99.99,Acu-Link.com,2013-11-01 15:34:00,
2013-11-01 10:49:00,56.4,47.1,29.68,North,-999,4.8,-999.0,71,-99.99,,,-99.99,Acu-Link.com,2013-11-01 15:49:00,
2013-11-01 11:05:00,54.7,45.5,29.68,North,-999,4.8,-999.0,71,-99.99,,,-99.99,Acu-Link.com,2013-11-01 16:05:00,
2013-11-01 11:20:00,55.1,46.6,29.69,North,-999,1.6,-999.0,73,-99.99,,,-99.99,Acu-Link.com,2013-11-01 16:20:00,
2013-11-01 11:35:00,53.9,44.3,29.69,North,-999,6.4,-999.0,70,-99.99,,,-99.99,Acu-Link.com,2013-11-01 16:35:00,
2013-11-01 11:50:00,56.3,44.7,29.69,North,-999,1.6,-999.0,65,-99.99,,,-99.99,Acu-Link.com,2013-11-01 16:50:00,
2013-11-01 12:05:00,56.5,44.9,29.70,North,-999,0.0,-999.0,65,-99.99,,,-99.99,Acu-Link.com,2013-11-01 17:05:00,
2013-11-01 12:21:00,56.8,43.9,29.71,North,-999,6.4,-999.0,62,-99.99,,,-99.99,Acu-Link.com,2013-11-01 17:21:00,
2013-11-01 12:36:00,56.8,44.3,29.72,North,-999,1.6,-999.0,63,-99.99,,,-99.99,Acu-Link.com,2013-11-01 17:36:00,
2013-11-01 12:51:00,59.2,45.3,29.71,North,-999,4.8,-999.0,60,-99.99,,,-99.99,Acu-Link.com,2013-11-01 17:51:00,
2013-11-01 13:07:00,61.2,45.4,29.71,North,-999,3.2,-999.0,56,-99.99,,,-99.99,Acu-Link.com,2013-11-01 18:07:00,
2013-11-01 13:22:00,61.3,44.0,29.71,North,-999,4.8,-999.0,53,-99.99,,,-99.99,Acu-Link.com,2013-11-01 18:22:00,
2013-11-01 13:37:00,63.1,44.2,29.70,North,-999,3.2,-999.0,50,-99.99,,,-99.99,Acu-Link.com,2013-11-01 18:37:00,
2013-11-01 13:52:00,63.1,43.6,29.70,North,-999,6.4,-999.0,49,-99.99,,,-99.99,Acu-Link.com,2013-11-01 18:52:00,
2013-11-01 14:08:00,63.7,42.5,29.70,North,-999,4.8,-999.0,46,-99.99,,,-99.99,Acu-Link.com,2013-11-01 19:08:00,
2013-11-01 14:23:00,64.6,43.3,29.70,North,-999,3.2,-999.0,46,-99.99,,,-99.99,Acu-Link.com,2013-11-01 19:23:00,
2013-11-01 14:38:00,62.8,41.7,29.70,North,-999,3.2,-999.0,46,-99.99,,,-99.99,Acu-Link.com,2013-11-01 19:38:00,
2013-11-01 14:54:00,60.1,40.3,29.70,North,-999,4.8,-999.0,48,-99.99,,,-99.99,Acu-Link.com,2013-11-01 19:54:00,
2013-11-01 15:09:00,61.5,40.0,29.70,North,-999,8.0,-999.0,45,-99.99,,,-99.99,Acu-Link.com,2013-11-01 20:09:00,
2013-11-01 15:25:00,63.0,41.9,29.70,North,-999,3.2,-999.0,46,-99.99,,,-99.99,Acu-Link.com,2013-11-01 20:25:00,
2013-11-01 15:40:00,59.7,40.0,29.70,North,-999,3.2,-999.0,48,-99.99,,,-99.99,Acu-Link.com,2013-11-01 20:40:00,
2013-11-01 15:55:00,57.7,41.2,29.70,North,-999,6.4,-999.0,54,-99.99,,,-99.99,Acu-Link.com,2013-11-01 20:55:00,
2013-11-01 16:10:00,61.3,42.0,29.71,North,-999,0.0,-999.0,49,-99.99,,,-99.99,Acu-Link.com,2013-11-01 21:10:00,
2013-11-01 16:25:00,58.4,39.8,29.71,North,-999,6.4,-999.0,50,-99.99,,,-99.99,Acu-Link.com,2013-11-01 21:25:00,
2013-11-01 16:41:00,55.5,40.5,29.73,North,-999,3.2,-999.0,57,-99.99,,,-99.99,Acu-Link.com,2013-11-01 21:41:00,
2013-11-01 16:56:00,49.9,43.3,29.76,North,-999,1.6,-999.0,78,-99.99,,,-99.99,Acu-Link.com,2013-11-01 21:56:00,
2013-11-01 17:11:00,48.9,43.3,29.77,North,-999,11.2,-999.0,81,-99.99,,,-99.99,Acu-Link.com,2013-11-01 22:11:00,
2013-11-01 17:26:00,49.2,44.3,29.77,North,-999,3.2,-999.0,83,-99.99,,,-99.99,Acu-Link.com,2013-11-01 22:26:00,
2013-11-01 17:41:00,47.9,43.3,29.76,North,-999,0.0,-999.0,84,-99.99,,,-99.99,Acu-Link.com,2013-11-01 22:41:00,
2013-11-01 17:56:00,46.4,42.7,29.77,North,-999,3.2,-999.0,87,-99.99,,,-99.99,Acu-Link.com,2013-11-01 22:56:00,
2013-11-01 18:12:00,45.5,42.2,29.78,North,-999,6.4,-999.0,88,-99.99,,,-99.99,Acu-Link.com,2013-11-01 23:12:00,
2013-11-01 18:27:00,44.6,42.1,29.78,North,-999,0.0,-999.0,91,-99.99,,,-99.99,Acu-Link.com,2013-11-01 23:27:00,
2013-11-01 18:42:00,43.9,42.0,29.80,North,-999,1.6,-999.0,93,-99.99,,,-99.99,Acu-Link.com,2013-11-01 23:42:00,
2013-11-01 18:58:00,44.7,41.9,29.80,North,-999,3.2,-999.0,90,-99.99,,,-99.99,Acu-Link.com,2013-11-01 23:58:00,
2013-11-01 19:13:00,44.7,41.7,29.81,North,-999,0.0,-999.0,89,-99.99,,,-99.99,Acu-Link.com,2013-11-02 00:13:00,
2013-11-01 19:28:00,45.3,41.4,29.82,North,-999,4.8,-999.0,86,-99.99,,,-99.99,Acu-Link.com,2013-11-02 00:28:00,
2013-11-01 19:43:00,46.0,41.4,29.83,North,-999,1.6,-999.0,84,-99.99,,,-99.99,Acu-Link.com,2013-11-02 00:43:00,
2013-11-01 19:58:00,44.3,40.4,29.83,North,-999,1.6,-999.0,86,-99.99,,,-99.99,Acu-Link.com,2013-11-02 00:58:00,
2013-11-01 20:13:00,43.7,40.1,29.84,North,-999,0.0,-999.0,87,-99.99,,,-99.99,Acu-Link.com,2013-11-02 01:13:00,
2013-11-01 20:29:00,43.9,40.3,29.84,North,-999,0.0,-999.0,87,-99.99,,,-99.99,Acu-Link.com,2013-11-02 01:29:00,
2013-11-01 20:44:00,43.5,40.2,29.85,North,-999,0.0,-999.0,88,-99.99,,,-99.99,Acu-Link.com,2013-11-02 01:44:00,
2013-11-01 20:59:00,42.4,39.4,29.85,North,-999,0.0,-999.0,89,-99.99,,,-99.99,Acu-Link.com,2013-11-02 01:59:00,
2013-11-01 21:14:00,42.7,40.3,29.86,North,-999,0.0,-999.0,91,-99.99,,,-99.99,Acu-Link.com,2013-11-02 02:14:00,
2013-11-01 21:30:00,42.8,39.8,29.87,North,-999,0.0,-999.0,89,-99.99,,,-99.99,Acu-Link.com,2013-11-02 02:30:00,
2013-11-01 21:45:00,42.0,39.8,29.87,North,-999,0.0,-999.0,92,-99.99,,,-99.99,Acu-Link.com,2013-11-02 02:45:00,
2013-11-01 22:00:00,43.3,40.9,29.88,North,-999,1.6,-999.0,91,-99.99,,,-99.99,Acu-Link.com,2013-11-02 03:00:00,
2013-11-01 22:16:00,44.8,40.9,29.87,North,-999,1.6,-999.0,86,-99.99,,,-99.99,Acu-Link.com,2013-11-02 03:16:00,
2013-11-01 22:31:00,45.4,40.5,29.88,North,-999,4.8,-999.0,83,-99.99,,,-99.99,Acu-Link.com,2013-11-02 03:31:00,
2013-11-01 22:46:00,45.3,40.4,29.88,North,-999,6.4,-999.0,83,-99.99,,,-99.99,Acu-Link.com,2013-11-02 03:46:00,
2013-11-01 23:01:00,44.2,40.0,29.89,North,-999,0.0,-999.0,85,-99.99,,,-99.99,Acu-Link.com,2013-11-02 04:01:00,
2013-11-01 23:17:00,43.1,39.5,29.89,North,-999,0.0,-999.0,87,-99.99,,,-99.99,Acu-Link.com,2013-11-02 04:17:00,
2013-11-01 23:32:00,41.9,39.2,29.89,North,-999,0.0,-999.0,90,-99.99,,,-99.99,Acu-Link.com,2013-11-02 04:32:00,
2013-11-01 23:47:00,41.2,39.1,29.89,North,-999,0.0,-999.0,92,-99.99,,,-99.99,Acu-Link.com,2013-11-02 04:47:00,